This is the latest recevied weather packets stored in our database for station/object SP6PGH-13. If no packets are shown the sender has not sent any weather packets the latest 10 day(s).
| Time | Temp. | Humidity | Pressure | Rain* | Wind** | Luminosity | Snow |
|---|---|---|---|---|---|---|---|
| 1788596855 | 18.89° C | 65% | 1002.3 hPa | - | - | 231 W/m² | - |
| 1788595954 | 18.89° C | 64% | 1002.2 hPa | - | - | 463 W/m² | - |
| 1788595052 | 18.33° C | 68% | 1002.1 hPa | - | - | 428 W/m² | - |
| 1788594152 | 17.78° C | 69% | 1002 hPa | - | - | 363 W/m² | - |
| 1788593251 | 17.78° C | 72% | 1001.9 hPa | - | - | 233 W/m² | - |
| 1788592350 | 17.22° C | 76% | 1001.6 hPa | - | - | 276 W/m² | - |
| 1788591449 | 17.22° C | 77% | 1001.6 hPa | - | - | 236 W/m² | - |
| 1788590548 | 16.67° C | 81% | 1001.5 hPa | - | - | 203 W/m² | - |
| 1788589646 | 16.67° C | 85% | 1001.3 hPa | - | - | 146 W/m² | - |
| 1788588746 | 15.56° C | 87% | 1001.2 hPa | - | - | 50 W/m² | - |
| 1788587844 | 15.56° C | 88% | 1001.2 hPa | - | - | 49 W/m² | - |
| 1788586943 | 15.56° C | 87% | 1001 hPa | - | - | 57 W/m² | - |
| 1788586042 | 15° C | 88% | 1000.9 hPa | - | - | 55 W/m² | - |
| 1788585141 | 14.44° C | 90% | 1000.7 hPa | - | - | 26 W/m² | - |
| 1788584240 | 14.44° C | 90% | 1000.6 hPa | - | - | 21 W/m² | - |
| 1788583339 | 15° C | 90% | 1000.5 hPa | - | - | 16 W/m² | - |
| 1788582438 | 15° C | 90% | 1000.2 hPa | - | - | 6 W/m² | - |
| 1788581537 | 15° C | 90% | 1000.1 hPa | - | - | 2 W/m² | - |
| 1788580636 | 15° C | 90% | 999.8 hPa | - | - | - | - |
| 1788579735 | 15° C | 90% | 999.9 hPa | - | - | - | - |
| 1788578834 | 15° C | 90% | 999.7 hPa | - | - | - | - |
| 1788577933 | 15° C | 90% | 999.5 hPa | - | - | - | - |
| 1788577032 | 15° C | 91% | 999.1 hPa | - | - | - | - |
| 1788576137 | 15.56° C | 91% | 999.1 hPa | - | - | - | - |
| 1788575229 | 15.56° C | 91% | 998.9 hPa | - | - | - | - |
* Rain since midnight (hover to see other rain measurements)
** Current wind speed in m/s (hover to see current wind gust speed)